SL-8 R/B

Satellite information

Favourite Embed

Satellite Type and Status

ROCKET BODYIN ORBIT

Key statistics

Satellite SL-8 R/B at a glance.

Uptime

18048

Days in orbit

Revolutions

≈ 14.4

Per day

Orbit

LEO

Low Earth Orbit

Inclination

74.0

Latest

Satellite identification and parameters

Extended collection of information and parameters for SL-8 R/B.

Object identification

Identified? True

Debris? False

Object name: SL-8 R/B

International designator: 1976-069B

Object number (NORAD): 9023

Object ID (CCSDS): 9023

Country: COMMONWEALTH OF INDEPENDENT STATES (CIS)

Current information (Y/N): Y

RCS size: LARGE

Orbital parameters

Period: 99.922 minutes

Inclination: 74.0413 deg

SMA: 7132.94 km

Apoapsis: 767.731 km

Periapsis: 741.878 km

RAAN: 132.4605 deg

Eccentricy: 0.00181228

Argument of periapsis: 253.4986 deg

Mean anomaly: 106.4179 deg

Mean motion: 14.41119335 rev/day

Mean motion (dot): 0.00000475 rev/day2

B* drag term: 0.00015537548 1/REarth

Two-line elements (TLE)

Creation date: Dec. 12, 2025, 3:16 a.m.

Reference frame: TEME

Reference center: EARTH

Epoch: Dec. 11, 2025, 7:46 p.m. UTC

TLE line 0: 0 SL-8 R/B

TLE line 1: 1 09023U 76069B 25345.82401541 .00000475 00000-0 15538-3 0 9997

TLE line 2: 2 09023 74.0413 132.4605 0018123 253.4986 106.4179 14.41119335590686

Live tracking on map

Real-time ground track for satellite SL-8 R/B.

In-orbit conjunctions

A list of the most updated potential collisions computed for object SL-8 R/B.

Target Orbit TCA Probability of collision Miss distance Type
CZ-4 DEB SSO 2025-11-15 22:25:09 0.002243718 57.0 (m) DEBRIS
FENGYUN 1C DEB SSO 2025-11-06 04:33:16 0.0001153596 459.0 (m) DEBRIS
NOAA 16 DEB SSO 2025-10-19 14:52:07 0.000103918 110.0 (m) DEBRIS
NOAA 16 DEB SSO 2025-05-19 03:13:31 0.0001086187 475.0 (m) DEBRIS
CZ-4B DEB SSO 2024-12-07 17:40:54 0.0001096118 824.0 (m) DEBRIS

Associated space launch

Military communications satellite

SL-8 R/B was lifted into orbit during the mission ‘Kosmos-3M | Strela-2M 13’, on board a Kosmos-3M space rocket.

The launch took place on July 15, 1976, 1:11 p.m. from 132/1 (132L).

For more information about the launch, click the button.

Launch to space Kosmos-3M | Strela-2M 13
Kosmos-3M | Strela-2M 13

Agency: N/A

Status: Launch Successful

Launch date: July 15, 1976, 1:11 p.m. UTC

Rocket: Kosmos-3M

Launch pad: 132/1 (132L)

Location: Plesetsk Cosmodrome, Russian Federation

...

Latest news about this satellite

There are no fresh news available about this satellite. Check back as we update our databases every day.


Newsletter sign-up

Weekly statistics, charts and insights to help you stay on top of the space industry.